Regional Weather Roundup
Issued by NWS

Home | Current Version | Previous Version | Text Only | Print | Product List | Glossary On
Versions: 1 2 3 4 5 6 7 8 9 10 11 12 13 14 15 16 17 18 19 20 21 22 23 24 25 26 27 28 29 30 31 32 33 34 35 36 37 38 39 40 41 42 43 44 45 46 47 48 49 50
000
ASUS43 KMPX 022110
RWRMN
WEATHER ROUNDUP FOR MINNESOTA
NATIONAL WEATHER SERVICE TWIN CITIES/CHANHASSEN MN
400 PM CDT SUN AUG 02 2015


NOTE: "FAIR" INDICATES FEW OR NO CLOUDS BELOW 12,000 FEET WITH NO
SIGNIFICANT WEATHER AND/OR OBSTRUCTIONS TO VISIBILITY. N/A MEANS
CURRENT SKY AND/OR WEATHER CONDITIONS ARE NOT AVAILABLE.

MNZ060>063-068>070-022200-
   Twin Cities Metro

CITY           SKY/WX    TMP DP  RH WIND       PRES   REMARKS
TWIN CITIES    MOSUNNY   84  61  45 NW17G24   29.70S
ST PAUL        MOSUNNY   84  61  45 NW15G22   29.69S
CRYSTAL        PTSUNNY   85  62  46 NW17G29   29.70S
BLAINE         MOSUNNY   81  63  54 NW15G24   29.71R
LAKEVILLE      SUNNY     81  64  57 NW16G22   29.71S
EDEN PRAIRIE   SUNNY     85  62  46 NW14      29.71R
SOUTH ST PAUL  MOSUNNY   84  59  41 NW16G25   29.69F
LAKE ELMO      FAIR      81  64  57 NW12G21   29.71S
$$
MNZ001>005-007-008-013>017-022>024-027-028-022200-
   Northwest Minnesota

CITY           SKY/WX    TMP DP  RH WIND       PRES   REMARKS
BEMIDJI        MOSUNNY   73  45  37 NW20G25   29.79S
HALLOCK        SUNNY     75  39  27 NW22G30   29.80S
ROSEAU         SUNNY     73  52  46 NW15G30   29.77S
WARROAD        SUNNY     72  52  49 NW16G23   29.76S
THIEF RVR FALL MOSUNNY   73  45  35 NW20      29.82R
CROOKSTON      SUNNY     75  45  33 NW20G26   29.83S
FOSSTON        MOSUNNY   72  46  40 NW14G21   29.83S
DETROIT LAKES  SUNNY     73  50  43 NW17G25   29.84F
MOORHEAD       MOSUNNY   75  55  50 NW15      29.84S
PARK RAPIDS    MOSUNNY   77  47  34 NW22G29   29.80R
MAHNOMEN       FAIR      73  52  49 NW16G22   29.82S
$$
MNZ006-009>011-018-025>026-022200-
   North Central Minnesota

CITY           SKY/WX    TMP DP  RH WIND       PRES   REMARKS
BAUDETTE       MOSUNNY   69  44  40 NW18G28   29.74S
FLAG ISLAND    SUNNY     70  45  40 NW25      29.73S
INTL FALLS     MOSUNNY   72  45  37 W18G30    29.71S
WASKISH        PTSUNNY   72  48  43 W16G23    29.76S
BIG FORK       MOSUNNY   73  46  38 NW7G17    29.75R
LONGVILLE      MOSUNNY   73  50  43 W14G24    29.77S
GRAND RAPIDS   MOSUNNY   73  45  35 NW20G29   29.74R
CRANE LAKE     MOSUNNY   68  46  45 NW10G21   29.71R
ORR            MOSUNNY   73  43  33 NW17G26   29.69R
COOK           MOSUNNY   73  48  40 NW17G25   29.72R
WALKER         FAIR      72  47  40 NW20G25   29.78S
$$
MNZ012-019>021-037-022200-
   Northeast Minnesota

CITY           SKY/WX    TMP DP  RH WIND       PRES   REMARKS
DULUTH         MOSUNNY   74  56  53 NW21G26   29.69R
ELY            MOSUNNY   72  46  40 NW12G20   29.67F
HIBBING        MOSUNNY   73  51  46 NW21G30   29.71S
EVELETH        MOSUNNY   72  52  49 NW14G22   29.71S
DULUTH HARBOR  MOSUNNY   70  55  60 N17       29.67R
TWO HARBORS    MOSUNNY   73  59  60 NW9       29.65R
SILVER BAY     MOSUNNY   75  55  50 NW6       29.64R
GRAND MARAIS     N/A     77  46  33 NW10G21   29.59S
G MARAIS ARPRT MOSUNNY   68  45  42 NW8G18    29.65S
$$
MNZ029>031-032-039>041-046>048-054>057-064-022200-
   West Central Minnesota

CITY           SKY/WX    TMP DP  RH WIND       PRES   REMARKS
FERGUS FALLS   MOSUNNY   75  55  50 N16G30    29.82S
MORRIS         SUNNY     79  57  47 NW16G22   29.82S
ALEXANDRIA     MOSUNNY   77  54  44 NW16G26   29.83R
ELBOW LAKE     FAIR      75  58  56 N14       29.83R
WADENA         MOSUNNY   75  54  46 NW20      29.81R
GLENWOOD       SUNNY     79  55  44 NW20G28   29.82S
APPLETON       MOSUNNY   81  54  39 NW17G24   29.82S
BENSON         SUNNY     79  54  41 N21       29.81S
ORTONVILLE     MOSUNNY   79  55  44 NW14G20   29.84S
MADISON        MOSUNNY   79  57  47 NW17      29.84S
WILLMAR        FAIR      81  59  47 NW20G25   29.81R
$$
MNZ033>034-036-042>043-049>051-058-059-022200-
   Central Minnesota

CITY           SKY/WX    TMP DP  RH WIND       PRES   REMARKS
ST CLOUD       MOSUNNY   80  57  45 NW14G22   29.74R
SAUK CENTRE    FAIR      77  56  48 NW16G26   29.79S
PAYNESVILLE    SUNNY     77  54  44 W16G24    29.79S
AITKIN         MOSUNNY   77  55  47 NW8G18    29.73R
PINE RIVER     MOSUNNY   75  52  43 N15G25    29.80S
BRAINERD       MOSUNNY   78  51  38 NW16G25   29.76R
STAPLES        MOSUNNY   77  50  38 NW18      29.79R
LONG PRAIRIE   FAIR      77  55  47 W14G24    29.80R
LITTLE FALLS   SUNNY     79  50  36 NW13G22   29.76R
LITCHFIELD     SUNNY     81  59  47 NW17G24   29.78R
BUFFALO        SUNNY     82  56  40 W21       29.74R
MAPLE LAKE     MOSUNNY   81  61  50 W15       29.75R
$$
MNZ037-044-045-052-053-022200-
   East Central Minnesota

CITY           SKY/WX    TMP DP  RH WIND       PRES   REMARKS
PRINCETON      MOSUNNY   82  61  47 NW13      29.72S
MORA           SUNNY     77  57  50 NW9       29.73S
CAMBRIDGE      SUNNY     81  63  54 NW12      29.70S
RUSH CITY      SUNNY     79  57  47 NW13G21   29.71S
MOOSE LAKE     MOSUNNY   77  54  44 NW17G26   29.69R
HINCKLEY       FAIR      79  59  50 W12G22    29.70S
CLOQUET        MOSUNNY   77  52  41 NW15G28   29.70R
MCGREGOR       MOSUNNY   79  52  38 NW15G25   29.73R
$$
MNZ071>073-080-081-089-090-097-098-022200-
   Southwest Minnesota

CITY           SKY/WX    TMP DP  RH WIND       PRES   REMARKS
MONTEVIDEO     MOSUNNY   82  61  47 N16G23    29.83S
GRANITE FALLS  MOSUNNY   79  60  51 NW14G24   29.83S
CANBY          SUNNY     79  59  51 N16       29.85S
MARSHALL       SUNNY     79  59  50 N14G24    29.84S
REDWOOD FALLS  SUNNY     82  59  45 NW18G26   29.79R
OLIVIA         SUNNY     77  55  47 NW20G28   29.79S
PIPESTONE      SUNNY     82  57  42 N7        29.86R
WINDOM         SUNNY     82  61  47 NW15      29.81S
WORTHINGTON    SUNNY     82  63  51 N13       29.83S
JACKSON        SUNNY     84  63  48 N13G21    29.81S
TRACY          SUNNY     81  63  54 N14G22    29.83S
SLAYTON        SUNNY     82  60  46 N15G21    29.85S
$$
MNZ065>067-074>077-082>085-091>093-022200-
   South Central Minnesota

CITY           SKY/WX    TMP DP  RH WIND       PRES   REMARKS
MANKATO        SUNNY     84  63  48 MISG      29.73S
NEW ULM        SUNNY     82  61  47 NW22      29.76R
ST JAMES       SUNNY     84  63  48 NW14      29.78S
FAIRMONT       SUNNY     84  61  45 NW18      29.77S
GLENCOE        MOSUNNY   82  65  56 NW16      29.75R
FARIBAULT      MOSUNNY   82  66  57 NW10G16   29.72S
OWATONNA       MOSUNNY   82  64  54 NW14G23   29.73S
WASECA         SUNNY     82  64  54 NW12G18   29.75R
ALBERT LEA     SUNNY     84  64  51 NW10G25   29.74S
$$
MNZ078>079-086>088-094>096-022200-
   Southeast Minnesota

CITY           SKY/WX    TMP DP  RH WIND       PRES   REMARKS
ROCHESTER      SUNNY     83  69  62 NW16G25   29.72R
RED WING       MOSUNNY   84  64  51 N14G23    29.67R
STANTON        MOSUNNY   85  66  54 NW18      29.70R
DODGE CENTER   MOSUNNY   82  66  57 NW13G22   29.73R
WINONA         SUNNY     88  66  48 W15G22    29.65R HX  90
AUSTIN         SUNNY     86  64  48 NW15G24   29.73S
PRESTON        SUNNY     83  65  53 NW15G23   29.72R
$$
ABBREVIATIONS USED IN REMARKS
   TC - TEMPERATURES IN CELSIUS
  WCI - WIND CHILL INDEX
   HX - HEAT INDEX
  VSB - VISIBILITY
$$


USA.gov is the U.S. government's official web portal to all federal, state and local government web resources and services.